• In Belarus
  • List of Countries
  • For 7 days
  • Water Temperature
  • Satellite Maps
  • Weather Map
  • Weather Widgets
  • user-avatar
    Login

    Hourly Weather Jalalabad

    Today, 20 June, Thursday

    Time Temperature Precipitation Wind Pressure Humidity
    00:00 +33°C° 0.1 mm 1 mps 705 mmHg 35%
    01:00 +32°C° 0.1 mm 1 mps 705 mmHg 37%
    02:00 +29°C° 0.1 mm 0 mps 705 mmHg 38%
    03:00 +31°C° 0.1 mm 1 mps 704 mmHg 39%
    04:00 +30°C° 0.1 mm 1 mps 704 mmHg 40%
    05:00 +30°C° 0.1 mm 1 mps 704 mmHg 41%
    06:00 +31°C° 0.1 mm 1 mps 705 mmHg 37%
    07:00 +30°C° 0.1 mm 0 mps 705 mmHg 34%
    08:00 +31°C° 0.1 mm 0 mps 705 mmHg 30%
    09:00 +34°C° 0 mm 1 mps 705 mmHg 29%
    10:00 +36°C° 0 mm 2 mps 706 mmHg 27%
    11:00 +38°C° 0 mm 2 mps 706 mmHg 26%
    12:00 +38°C° 0 mm 2 mps 705 mmHg 24%
    13:00 +39°C° 0 mm 3 mps 705 mmHg 22%
    14:00 +40°C° 0 mm 3 mps 704 mmHg 20%
    15:00 +41°C° 0 mm 4 mps 704 mmHg 20%
    16:00 +41°C° 0 mm 4 mps 704 mmHg 20%
    17:00 +41°C° 0 mm 5 mps 704 mmHg 20%
    18:00 +39°C° 0 mm 5 mps 704 mmHg 24%
    19:00 +37°C° 0 mm 4 mps 704 mmHg 28%
    20:00 +35°C° 0 mm 4 mps 705 mmHg 33%
    21:00 +35°C° 0 mm 3 mps 705 mmHg 34%
    22:00 +34°C° 0 mm 2 mps 705 mmHg 36%
    23:00 +33°C° 0 mm 1 mps 706 mmHg 37%

    Tomorrow, 21 June, Friday

    Time Temperature Precipitation Wind Pressure Humidity
    00:00 +32°C° 0.1 mm 1 mps 706 mmHg 39%
    01:00 +31°C° 0.1 mm 1 mps 706 mmHg 41%
    02:00 +31°C° 0.1 mm 2 mps 705 mmHg 43%
    03:00 +30°C° 0.1 mm 1 mps 705 mmHg 45%
    04:00 +30°C° 0.1 mm 1 mps 705 mmHg 47%
    05:00 +27°C° 0.1 mm 0 mps 705 mmHg 49%
    06:00 +28°C° 0 mm 0 mps 706 mmHg 46%
    07:00 +29°C° 0 mm 0 mps 706 mmHg 43%
    08:00 +32°C° 0 mm 1 mps 706 mmHg 40%
    09:00 +33°C° 0 mm 1 mps 706 mmHg 37%
    10:00 +34°C° 0 mm 1 mps 706 mmHg 34%
    11:00 +37°C° 0 mm 2 mps 706 mmHg 31%
    12:00 +38°C° 0 mm 2 mps 706 mmHg 28%
    13:00 +39°C° 0 mm 2 mps 706 mmHg 25%
    14:00 +40°C° 0 mm 2 mps 705 mmHg 23%
    15:00 +40°C° 0 mm 2 mps 705 mmHg 22%
    16:00 +40°C° 0 mm 2 mps 705 mmHg 21%
    17:00 +41°C° 0 mm 2 mps 705 mmHg 20%
    18:00 +38°C° 0.3 mm 3 mps 705 mmHg 26%
    19:00 +36°C° 0.3 mm 3 mps 705 mmHg 32%
    20:00 +34°C° 0.3 mm 3 mps 705 mmHg 38%
    21:00 +34°C° 0.1 mm 3 mps 706 mmHg 38%
    22:00 +34°C° 0.1 mm 2 mps 706 mmHg 37%
    23:00 +33°C° 0.1 mm 1 mps 706 mmHg 37%

    Day after tomorrow, 22 June, Saturday

    Time Temperature Precipitation Wind Pressure Humidity
    00:00 +32°C° 0 mm 1 mps 706 mmHg 39%
    01:00 +32°C° 0 mm 1 mps 706 mmHg 41%
    02:00 +29°C° 0 mm 0 mps 705 mmHg 43%
    03:00 +29°C° 0 mm 0 mps 705 mmHg 45%
    04:00 +28°C° 0 mm 0 mps 705 mmHg 46%
    05:00 +28°C° 0 mm 0 mps 705 mmHg 47%
    06:00 +29°C° 0 mm 0 mps 705 mmHg 43%
    07:00 +30°C° 0 mm 0 mps 706 mmHg 39%
    08:00 +32°C° 0 mm 0 mps 706 mmHg 35%
    09:00 +35°C° 0 mm 1 mps 706 mmHg 32%
    10:00 +36°C° 0 mm 1 mps 706 mmHg 28%
    11:00 +39°C° 0 mm 1 mps 706 mmHg 25%
    12:00 +40°C° 0 mm 1 mps 706 mmHg 23%
    13:00 +41°C° 0 mm 1 mps 705 mmHg 21%
    14:00 +42°C° 0 mm 2 mps 705 mmHg 19%
    15:00 +42°C° 0.1 mm 2 mps 705 mmHg 19%
    16:00 +42°C° 0.1 mm 3 mps 705 mmHg 19%
    17:00 +42°C° 0.1 mm 4 mps 704 mmHg 19%
    18:00 +40°C° 0 mm 3 mps 705 mmHg 22%
    19:00 +38°C° 0 mm 3 mps 705 mmHg 25%
    20:00 +37°C° 0 mm 2 mps 705 mmHg 27%
    21:00 +36°C° 0 mm 2 mps 705 mmHg 30%
    22:00 +35°C° 0 mm 1 mps 705 mmHg 32%
    23:00 +34°C° 0 mm 1 mps 706 mmHg 34%

    23 June, Sunday

    Time Temperature Precipitation Wind Pressure Humidity
    00:00 +33°C° 0 mm 1 mps 705 mmHg 35%
    01:00 +31°C° 0 mm 0 mps 705 mmHg 37%
    02:00 +30°C° 0 mm 0 mps 705 mmHg 38%
    03:00 +29°C° 0 mm 0 mps 705 mmHg 37%
    04:00 +31°C° 0 mm 1 mps 705 mmHg 36%
    05:00 +30°C° 0 mm 1 mps 705 mmHg 36%
    06:00 +32°C° 0 mm 1 mps 705 mmHg 31%
    07:00 +33°C° 0 mm 1 mps 705 mmHg 27%
    08:00 +33°C° 0 mm 0 mps 706 mmHg 23%
    09:00 +36°C° 0 mm 1 mps 706 mmHg 20%
    10:00 +37°C° 0 mm 1 mps 705 mmHg 16%
    11:00 +40°C° 0 mm 1 mps 705 mmHg 12%
    12:00 +40°C° 0 mm 1 mps 705 mmHg 12%
    13:00 +41°C° 0 mm 1 mps 705 mmHg 11%
    14:00 +42°C° 0 mm 2 mps 705 mmHg 11%
    15:00 +42°C° 0.1 mm 3 mps 704 mmHg 15%
    16:00 +41°C° 0.1 mm 5 mps 704 mmHg 20%
    17:00 +39°C° 0.1 mm 7 mps 704 mmHg 24%
    18:00 +37°C° 0 mm 5 mps 704 mmHg 26%
    19:00 +36°C° 0 mm 3 mps 704 mmHg 28%
    20:00 +35°C° 0 mm 2 mps 705 mmHg 31%
    21:00 +34°C° 0 mm 1 mps 705 mmHg 31%
    22:00 +34°C° 0 mm 1 mps 705 mmHg 32%
    23:00 +31°C° 0 mm 0 mps 706 mmHg 33%

    24 June, Monday

    Time Temperature Precipitation Wind Pressure Humidity
    00:00 +31°C° 0 mm 0 mps 705 mmHg 33%
    01:00 +30°C° 0 mm 0 mps 705 mmHg 34%
    02:00 +32°C° 0 mm 1 mps 705 mmHg 34%
    03:00 +31°C° 0 mm 1 mps 705 mmHg 34%
    04:00 +30°C° 0 mm 1 mps 705 mmHg 35%
    05:00 +30°C° 0 mm 1 mps 705 mmHg 35%
    06:00 +31°C° 0 mm 1 mps 705 mmHg 31%
    07:00 +32°C° 0 mm 1 mps 705 mmHg 28%
    08:00 +34°C° 0 mm 1 mps 706 mmHg 24%
    09:00 +35°C° 0 mm 1 mps 706 mmHg 22%
    10:00 +36°C° 0 mm 1 mps 706 mmHg 20%
    11:00 +37°C° 0 mm 1 mps 706 mmHg 17%
    12:00 +39°C° 0 mm 2 mps 705 mmHg 17%
    13:00 +40°C° 0 mm 2 mps 705 mmHg 16%
    14:00 +41°C° 0 mm 2 mps 705 mmHg 16%
    15:00 +42°C° 0 mm 3 mps 705 mmHg 17%
    16:00 +42°C° 0 mm 3 mps 705 mmHg 18%
    17:00 +42°C° 0 mm 4 mps 705 mmHg 19%
    18:00 +41°C° 0 mm 4 mps 705 mmHg 22%
    19:00 +39°C° 0 mm 3 mps 705 mmHg 25%
    20:00 +38°C° 0 mm 3 mps 705 mmHg 28%
    21:00 +37°C° 0 mm 2 mps 706 mmHg 29%
    22:00 +37°C° 0 mm 2 mps 706 mmHg 31%
    23:00 +35°C° 0 mm 1 mps 706 mmHg 32%

    25 June, Tuesday

    Time Temperature Precipitation Wind Pressure Humidity
    00:00 +35°C° 0.1 mm 1 mps 706 mmHg 33%
    01:00 +34°C° 0.1 mm 1 mps 705 mmHg 34%
    02:00 +34°C° 0.1 mm 1 mps 705 mmHg 36%
    03:00 +33°C° 0 mm 1 mps 705 mmHg 36%
    04:00 +33°C° 0 mm 1 mps 705 mmHg 36%
    05:00 +32°C° 0 mm 1 mps 704 mmHg 37%
    06:00 +33°C° 0 mm 1 mps 704 mmHg 33%
    07:00 +35°C° 0 mm 1 mps 705 mmHg 30%
    08:00 +36°C° 0 mm 1 mps 705 mmHg 26%
    09:00 +37°C° 0 mm 1 mps 705 mmHg 25%
    10:00 +39°C° 0 mm 1 mps 705 mmHg 23%
    11:00 +40°C° 0 mm 2 mps 705 mmHg 22%
    12:00 +40°C° 0.1 mm 3 mps 704 mmHg 22%
    13:00 +42°C° 0.1 mm 5 mps 704 mmHg 23%
    14:00 +43°C° 0.1 mm 7 mps 704 mmHg 23%
    15:00 +42°C° 0.1 mm 6 mps 703 mmHg 22%
    16:00 +42°C° 0.1 mm 6 mps 703 mmHg 20%
    17:00 +42°C° 0.1 mm 5 mps 703 mmHg 18%
    18:00 +40°C° 0 mm 4 mps 703 mmHg 20%
    19:00 +38°C° 0 mm 2 mps 703 mmHg 23%
    20:00 +36°C° 0 mm 1 mps 704 mmHg 25%
    21:00 +36°C° 0 mm 1 mps 704 mmHg 26%
    22:00 +35°C° 0 mm 1 mps 704 mmHg 28%
    23:00 +34°C° 0 mm 1 mps 704 mmHg 30%
    Show more